Location: Huesca
(42.1318°N, 0.4078°W)
Time: 20:48:07
(UTC+02:00)

AO-73 - Visible Passes

Search period start: 22 April 2024 00:00
Search period end: 02 May 2024 00:00
Orbit: 561 x 628 km, 97.7° (Epoch: 21 April)

Date Brightness Start Highest point End Pass type
(mag) Time Alt. Az. Time Alt. Az. Time Alt. Az.
22 Apr ? 04:10:42 10° NE 04:13:38 17° E 04:15:14 15° ESE visible
22 Apr ? 05:45:17 10° N 05:49:25 43° WNW 05:51:53 22° SW visible
23 Apr ? 04:19:41 10° NE 04:23:06 22° E 04:24:49 17° SE visible
23 Apr ? 05:54:47 10° N 05:58:45 35° WNW 06:01:27 18° SW visible
24 Apr ? 04:28:45 10° NE 04:32:30 27° E 04:34:21 20° SE visible
24 Apr ? 06:04:17 10° N 06:08:02 28° WNW 06:10:59 14° WSW visible
25 Apr ? 04:37:52 10° NNE 04:41:52 34° E 04:43:52 23° SE visible
25 Apr ? 06:13:49 10° NNW 06:17:15 23° WNW 06:20:30 11° WSW visible
26 Apr ? 04:46:59 10° NNE 04:51:10 43° E 04:53:20 24° SSE visible
26 Apr ? 06:23:24 10° NNW 06:26:26 19° WNW 06:29:29 10° WSW visible
27 Apr ? 04:56:08 10° NNE 05:00:27 54° E 05:02:46 25° SSE visible
28 Apr ? 05:05:17 10° NNE 05:09:40 69° ESE 05:12:10 25° S visible
29 Apr ? 05:14:27 10° NNE 05:18:50 87° E 05:21:31 23° SSW visible
30 Apr ? 05:23:35 10° N 05:27:58 75° WNW 05:30:51 21° SSW visible
01 May ? 03:59:07 10° ENE 04:01:06 13° E 04:03:05 10° ESE visible
01 May ? 05:32:44 10° N 05:37:03 59° WNW 05:40:07 18° SSW visible
